This is the latest recevied weather packets stored in our database for station/object N8QQQ. If no packets are shown the sender has not sent any weather packets the latest 10 day(s).
| Time | Temp. | Humidity | Pressure | Rain* | Wind** | Luminosity | Snow |
|---|---|---|---|---|---|---|---|
| 1778133871 | -1.11° C | 83% | 1011.8 hPa | 0 mm | - | 0 W/m² | - |
| 1778133568 | -1.11° C | 84% | 1011.8 hPa | 0 mm | - | 0 W/m² | - |
| 1778133263 | -1.11° C | 84% | 1012.2 hPa | 0 mm | - | 0 W/m² | - |
| 1778132954 | -1.11° C | 84% | 1012 hPa | 0 mm | - | 0 W/m² | - |
| 1778132650 | -1.11° C | 85% | 1011.9 hPa | 0 mm | - | 0 W/m² | - |
| 1778132348 | -1.11° C | 85% | 1012 hPa | 0 mm | - | 0 W/m² | - |
| 1778132045 | -1.11° C | 86% | 1011.9 hPa | 0 mm | - | 0 W/m² | - |
| 1778131744 | -1.11° C | 86% | 1012.2 hPa | 0 mm | - | 0 W/m² | - |
| 1778131441 | -1.11° C | 87% | 1012 hPa | 0 mm | - | 0 W/m² | - |
| 1778131138 | -1.11° C | 85% | 1012.2 hPa | 0 mm | - | 0 W/m² | - |
| 1778130835 | -1.11° C | 86% | 1012 hPa | 0 mm | - | 0 W/m² | - |
| 1778130532 | -1.11° C | 85% | 1012.4 hPa | 0 mm | - | 0 W/m² | - |
| 1778130229 | -1.67° C | 84% | 1012.3 hPa | 0 mm | - | 0 W/m² | - |
| 1778129926 | -1.67° C | 83% | 1012.4 hPa | 0 mm | - | 0 W/m² | - |
| 1778129622 | -1.67° C | 83% | 1012.3 hPa | 0 mm | - | 0 W/m² | - |
| 1778129319 | -1.67° C | 84% | 1012.3 hPa | 0 mm | - | 0 W/m² | - |
| 1778129016 | -1.67° C | 86% | 1012.4 hPa | 0 mm | - | 0 W/m² | - |
| 1778128711 | -1.67° C | 87% | 1012.2 hPa | 0 mm | - | 0 W/m² | - |
| 1778128408 | -2.22° C | 87% | 1012.3 hPa | 0 mm | - | 0 W/m² | - |
| 1778128105 | -2.22° C | 86% | 1012.3 hPa | 0 mm | - | 0 W/m² | - |
| 1778127800 | -2.22° C | 87% | 1012.3 hPa | 0 mm | - | 0 W/m² | - |
| 1778127497 | -2.22° C | 84% | 1012.4 hPa | 0 mm | - | 0 W/m² | - |
| 1778127194 | -2.22° C | 84% | 1012.4 hPa | 0 mm | - | 0 W/m² | - |
| 1778126892 | -2.22° C | 83% | 1012.3 hPa | 0 mm | - | 0 W/m² | - |
| 1778126587 | -2.22° C | 83% | 1012.4 hPa | 0 mm | - | 0 W/m² | - |
* Rain latest hour (hover to see other rain measurements)
** Current wind speed in m/s (hover to see current wind gust speed)